START_TIME,STEP,MOV.,M34,t_acc.,L5,t_acc.,L18,t_acc.,L14,t_acc.
1989-08-27T09:00:25.270 ,4,0,0.,12.0,0.,12.0,0.,12.0,0.,12.0
1989-08-27T09:00:37.270 ,4,0,0.,12.0,0.,12.0,0.,12.0,0.,12.0
1989-08-27T09:00:49.260 ,5,1,0.,12.0,0.,12.0,0.,12.0,0.,12.0
1989-08-27T09:01:01.260 ,5,1,0.,12.0,0.,12.0,0.,12.0,0.,12.0
1989-08-27T09:01:13.260 ,5,0,0.,12.0,0.,12.0,0.,12.0,0.,12.0
1989-08-27T09:01:25.260 ,5,0,0.,12.0,0.,12.0,0.,12.0,0.,12.0
1989-08-27T09:01:37.260 ,6,1,0.,12.0,0.,12.0,0.,12.0,0.,12.0
1989-08-27T09:01:49.260 ,6,1,0.,12.0,0.,12.0,0.,12.0,0.,12.0
1989-08-27T09:02:01.260 ,6,0,0.,12.0,0.,12.0,0.,12.0,0.,12.0
1989-08-27T09:02:13.260 ,6,0,0.,12.0,0.,12.0,0.,12.0,0.,12.0
1989-08-27T09:02:25.260 ,7,1,0.,12.0,0.,12.0,0.,12.0,0.,12.0
1989-08-27T09:02:37.260 ,7,1,0.,12.0,0.,12.0,0.,12.0,0.,12.0
1989-08-27T09:02:49.260 ,7,0,0.,12.0,0.,12.0,0.,12.0,0.,12.0
1989-08-27T09:03:01.260 ,7,0,0.,12.0,0.,12.0,0.,12.0,0.,12.0
1989-08-27T09:03:13.260 ,7,1,0.,12.0,0.,12.0,0.,12.0,0.,12.0
1989-08-27T09:03:25.260 ,7,1,0.,12.0,0.,12.0,0.,12.0,0.,12.0
1989-08-27T09:03:37.260 ,7,0,0.,12.0,0.,12.0,0.,12.0,0.,12.0
1989-08-27T09:03:49.260 ,7,0,0.,12.0,0.,12.0,0.,12.0,0.,12.0
1989-08-27T09:04:01.260 ,6,1,0.,12.0,0.,12.0,0.,12.0,0.,12.0
1989-08-27T09:04:13.260 ,6,1,0.,12.0,0.,12.0,0.,12.0,0.,12.0
1989-08-27T09:04:25.260 ,6,0,0.,12.0,0.,12.0,0.,12.0,0.,12.0
1989-08-27T09:04:37.260 ,6,0,0.,12.0,0.,12.0,0.,12.0,0.,12.0
1989-08-27T09:04:49.260 ,5,1,0.,12.0,0.,12.0,0.,12.0,0.,12.0
1989-08-27T09:05:01.260 ,5,1,0.,12.0,0.,12.0,0.,12.0,0.,12.0
1989-08-27T09:05:13.260 ,5,0,0.,12.0,0.,12.0,0.,12.0,0.,12.0
1989-08-27T09:05:25.260 ,5,0,0.,12.0,0.,12.0,0.,12.0,0.,12.0
1989-08-27T09:05:37.260 ,4,1,0.,12.0,0.,12.0,0.,12.0,0.,12.0
1989-08-27T09:05:49.260 ,4,1,0.,12.0,0.,12.0,0.,12.0,0.,12.0
1989-08-27T09:06:01.260 ,4,0,0.,12.0,0.,12.0,0.,12.0,0.,12.0
1989-08-27T09:06:13.260 ,4,0,0.,12.0,0.,12.0,0.,12.0,0.,12.0
1989-08-27T09:06:25.260 ,3,1,0.,12.0,0.,12.0,0.,12.0,0.,12.0
1989-08-27T09:06:37.260 ,3,1,0.,12.0,0.,12.0,0.,12.0,0.,12.0
1989-08-27T09:06:49.260 ,3,0,0.,12.0,0.,12.0,0.,12.0,0.,12.0
1989-08-27T09:07:01.260 ,3,0,0.,12.0,0.,12.0,0.,12.0,0.,12.0
1989-08-27T09:07:13.260 ,2,1,0.,12.0,0.,12.0,0.,12.0,0.,12.0
1989-08-27T09:07:25.260 ,2,1,0.,12.0,0.,12.0,0.,12.0,0.,12.0
1989-08-27T09:07:37.260 ,2,0,0.,12.0,0.,12.0,0.,12.0,0.,12.0
1989-08-27T09:07:49.260 ,2,0,0.,12.0,0.,12.0,0.,12.0,0.,12.0
1989-08-27T09:08:01.260 ,1,1,0.,12.0,0.,12.0,0.,12.0,0.,12.0
1989-08-27T09:08:13.260 ,1,1,0.,12.0,0.,12.0,0.,12.0,0.,12.0
1989-08-27T09:08:25.260 ,1,0,0.,12.0,0.,12.0,0.,12.0,0.,12.0
1989-08-27T09:08:37.260 ,1,0,0.,12.0,0.,12.0,0.,12.0,0.,12.0
1989-08-27T09:08:49.260 ,0,1,0.,12.0,0.,12.0,0.,12.0,0.,12.0
1989-08-27T09:09:01.260 ,0,1,0.,12.0,0.,12.0,0.,12.0,0.,12.0
1989-08-27T09:09:13.260 ,0,0,0.,12.0,0.,12.0,0.,12.0,0.,12.0
1989-08-27T09:09:25.260 ,0,0,0.,12.0,0.,12.0,0.,12.0,0.,12.0
1989-08-27T09:09:37.260 ,0,1,0.,12.0,0.,12.0,0.,12.0,0.,12.0
1989-08-27T09:09:49.260 ,0,1,0.,12.0,0.,12.0,0.,12.0,0.,12.0
1989-08-27T09:10:01.260 ,0,0,0.,12.0,0.,12.0,0.,12.0,0.,12.0
1989-08-27T09:10:13.260 ,0,0,0.,12.0,0.,12.0,0.,12.0,0.,12.0
1989-08-27T09:10:25.260 ,1,1,0.,12.0,0.,12.0,0.,12.0,0.,12.0
1989-08-27T09:10:37.260 ,1,1,0.,12.0,0.,12.0,0.,12.0,0.,12.0
1989-08-27T09:10:49.260 ,1,0,0.,12.0,0.,12.0,0.,12.0,0.,12.0
1989-08-27T09:11:01.260 ,1,0,0.,12.0,0.,12.0,0.,12.0,0.,12.0
1989-08-27T09:11:13.260 ,2,1,0.,12.0,0.,12.0,0.,12.0,0.,12.0
1989-08-27T09:11:25.260 ,2,1,0.,12.0,0.,12.0,0.,12.0,0.,12.0
1989-08-27T09:11:37.260 ,2,0,0.,12.0,1.,12.0,0.,12.0,0.,12.0
1989-08-27T09:11:49.260 ,2,0,0.,12.0,0.,12.0,0.,12.0,0.,12.0
1989-08-27T09:12:01.260 ,3,1,0.,12.0,0.,12.0,0.,12.0,0.,12.0
1989-08-27T09:12:13.260 ,3,1,0.,12.0,0.,12.0,0.,12.0,0.,12.0
1989-08-27T09:12:25.260 ,3,0,0.,12.0,0.,12.0,0.,12.0,0.,12.0
1989-08-27T09:12:37.260 ,3,0,0.,12.0,0.,12.0,0.,12.0,0.,12.0
1989-08-27T09:12:49.260 ,4,1,0.,12.0,0.,12.0,0.,12.0,0.,12.0
1989-08-27T09:13:01.260 ,4,1,0.,12.0,0.,12.0,0.,12.0,0.,12.0
1989-08-27T09:13:13.260 ,4,0,0.,12.0,0.,12.0,0.,12.0,0.,12.0
1989-08-27T09:13:25.260 ,4,0,0.,12.0,0.,12.0,0.,12.0,0.,12.0
1989-08-27T09:13:37.260 ,5,1,0.,12.0,0.,12.0,0.,12.0,0.,12.0
1989-08-27T09:13:49.260 ,5,1,0.,12.0,0.,12.0,0.,12.0,0.,12.0
1989-08-27T09:14:01.260 ,5,0,0.,12.0,0.,12.0,0.,12.0,0.,12.0
1989-08-27T09:14:13.260 ,5,0,0.,12.0,0.,12.0,0.,12.0,0.,12.0
1989-08-27T09:14:25.260 ,6,1,0.,12.0,0.,12.0,0.,12.0,0.,12.0
1989-08-27T09:14:37.260 ,6,1,0.,12.0,0.,12.0,0.,12.0,0.,12.0
1989-08-27T09:14:49.260 ,6,0,0.,12.0,0.,12.0,0.,12.0,0.,12.0
1989-08-27T09:15:01.260 ,6,0,0.,12.0,0.,12.0,0.,12.0,0.,12.0
1989-08-27T09:15:13.260 ,7,1,0.,12.0,0.,12.0,0.,12.0,0.,12.0
1989-08-27T09:15:25.260 ,7,1,0.,12.0,0.,12.0,0.,12.0,0.,12.0
1989-08-27T09:15:37.260 ,7,0,0.,12.0,0.,12.0,0.,12.0,0.,12.0
1989-08-27T09:15:49.260 ,7,0,0.,12.0,0.,12.0,0.,12.0,0.,12.0
1989-08-27T09:16:01.260 ,7,1,0.,12.0,0.,12.0,0.,12.0,0.,12.0
1989-08-27T09:16:13.260 ,7,1,0.,12.0,0.,12.0,0.,12.0,0.,12.0
1989-08-27T09:16:25.260 ,7,0,0.,12.0,0.,12.0,0.,12.0,0.,12.0
1989-08-27T09:16:37.260 ,7,0,0.,12.0,0.,12.0,0.,12.0,0.,12.0
1989-08-27T09:16:49.260 ,6,1,0.,12.0,0.,12.0,0.,12.0,0.,12.0
1989-08-27T09:17:01.260 ,6,1,0.,12.0,0.,12.0,0.,12.0,0.,12.0
1989-08-27T09:17:13.260 ,6,0,0.,12.0,0.,12.0,0.,12.0,0.,12.0
1989-08-27T09:17:25.260 ,6,0,0.,12.0,0.,12.0,0.,12.0,0.,12.0
1989-08-27T09:17:37.260 ,5,1,0.,12.0,0.,12.0,0.,12.0,0.,12.0
1989-08-27T09:17:49.260 ,5,1,0.,12.0,0.,12.0,0.,12.0,0.,12.0
1989-08-27T09:18:01.260 ,5,0,0.,12.0,0.,12.0,0.,12.0,0.,12.0
1989-08-27T09:18:13.260 ,5,0,0.,12.0,0.,12.0,0.,12.0,0.,12.0
1989-08-27T09:18:25.260 ,4,1,0.,12.0,0.,12.0,0.,12.0,0.,12.0
1989-08-27T09:18:37.260 ,4,1,0.,12.0,0.,12.0,0.,12.0,0.,12.0
1989-08-27T09:18:49.260 ,4,0,0.,12.0,0.,12.0,0.,12.0,0.,12.0
1989-08-27T09:19:01.260 ,4,0,0.,12.0,0.,12.0,0.,12.0,0.,12.0
1989-08-27T09:19:13.260 ,3,1,0.,12.0,0.,12.0,0.,12.0,0.,12.0
1989-08-27T09:19:25.260 ,3,1,0.,12.0,0.,12.0,0.,12.0,0.,12.0
1989-08-27T09:19:37.260 ,3,0,0.,12.0,0.,12.0,0.,12.0,0.,12.0
1989-08-27T09:19:49.260 ,3,0,0.,12.0,0.,12.0,0.,12.0,0.,12.0
1989-08-27T09:20:01.260 ,2,1,0.,12.0,0.,12.0,0.,12.0,0.,12.0
1989-08-27T09:20:13.260 ,2,1,0.,12.0,0.,12.0,0.,12.0,0.,12.0
1989-08-27T09:20:25.260 ,2,0,0.,12.0,0.,12.0,0.,12.0,0.,12.0
1989-08-27T09:20:37.260 ,2,0,0.,12.0,0.,12.0,0.,12.0,0.,12.0
1989-08-27T09:20:49.260 ,1,1,0.,12.0,0.,12.0,0.,12.0,0.,12.0
1989-08-27T09:21:01.260 ,1,1,0.,12.0,0.,12.0,0.,12.0,0.,12.0
1989-08-27T09:21:13.260 ,1,0,0.,12.0,0.,12.0,0.,12.0,0.,12.0
1989-08-27T09:21:25.260 ,1,0,0.,12.0,0.,12.0,0.,12.0,0.,12.0
1989-08-27T09:21:37.260 ,0,1,0.,12.0,0.,12.0,0.,12.0,0.,12.0
1989-08-27T09:21:49.260 ,0,1,0.,12.0,0.,12.0,0.,12.0,0.,12.0
1989-08-27T09:22:01.260 ,0,0,0.,12.0,0.,12.0,0.,12.0,0.,12.0
1989-08-27T09:22:13.260 ,0,0,0.,12.0,0.,12.0,0.,12.0,0.,12.0
1989-08-27T09:22:25.260 ,0,1,0.,12.0,0.,12.0,0.,12.0,0.,12.0
1989-08-27T09:22:37.260 ,0,1,0.,12.0,0.,12.0,0.,12.0,0.,12.0
1989-08-27T09:22:49.260 ,0,0,0.,12.0,0.,12.0,0.,12.0,0.,12.0
1989-08-27T09:23:01.260 ,0,0,0.,12.0,0.,12.0,0.,12.0,0.,12.0
1989-08-27T09:23:13.260 ,1,1,0.,12.0,0.,12.0,0.,12.0,0.,12.0
1989-08-27T09:23:25.260 ,1,1,0.,12.0,0.,12.0,0.,12.0,0.,12.0
1989-08-27T09:23:37.260 ,1,0,0.,12.0,0.,12.0,0.,12.0,0.,12.0
1989-08-27T09:23:49.260 ,1,0,0.,12.0,0.,12.0,0.,12.0,0.,12.0
1989-08-27T09:24:01.260 ,2,1,0.,12.0,0.,12.0,0.,12.0,0.,12.0
1989-08-27T09:24:13.260 ,2,1,0.,12.0,0.,12.0,0.,12.0,0.,12.0
1989-08-27T09:24:25.260 ,2,0,0.,12.0,0.,12.0,0.,12.0,0.,12.0
1989-08-27T09:24:37.260 ,2,0,0.,12.0,0.,12.0,0.,12.0,0.,12.0
1989-08-27T09:24:49.260 ,3,1,0.,12.0,0.,12.0,0.,12.0,0.,12.0
1989-08-27T09:25:01.260 ,3,1,0.,12.0,0.,12.0,0.,12.0,0.,12.0
1989-08-27T09:25:13.260 ,3,0,0.,12.0,0.,12.0,0.,12.0,0.,12.0
1989-08-27T09:25:25.260 ,3,0,0.,12.0,0.,12.0,0.,12.0,0.,12.0
1989-08-27T09:25:37.260 ,4,1,0.,12.0,0.,12.0,0.,12.0,0.,12.0
1989-08-27T09:25:49.260 ,4,1,0.,12.0,0.,12.0,0.,12.0,0.,12.0
1989-08-27T09:26:01.260 ,4,0,0.,12.0,0.,12.0,0.,12.0,0.,12.0
1989-08-27T09:26:13.260 ,4,0,0.,12.0,0.,12.0,0.,12.0,0.,12.0
1989-08-27T09:26:25.260 ,5,1,0.,12.0,0.,12.0,0.,12.0,0.,12.0
1989-08-27T09:26:37.260 ,5,1,0.,12.0,0.,12.0,0.,12.0,0.,12.0
1989-08-27T09:26:49.260 ,5,0,0.,12.0,0.,12.0,0.,12.0,0.,12.0
1989-08-27T09:27:01.260 ,5,0,0.,12.0,0.,12.0,0.,12.0,0.,12.0
1989-08-27T09:27:13.260 ,6,1,0.,12.0,0.,12.0,0.,12.0,0.,12.0
1989-08-27T09:27:25.260 ,6,1,0.,12.0,0.,12.0,0.,12.0,0.,12.0
1989-08-27T09:27:37.260 ,6,0,0.,12.0,0.,12.0,0.,12.0,0.,12.0
1989-08-27T09:27:49.260 ,6,0,0.,12.0,0.,12.0,0.,12.0,0.,12.0
1989-08-27T09:28:01.260 ,7,1,0.,12.0,0.,12.0,0.,12.0,0.,12.0
1989-08-27T09:28:13.260 ,7,1,0.,12.0,0.,12.0,0.,12.0,0.,12.0
1989-08-27T09:28:25.260 ,7,0,0.,12.0,0.,12.0,0.,12.0,0.,12.0
1989-08-27T09:28:37.260 ,7,0,0.,12.0,0.,12.0,0.,12.0,0.,12.0
1989-08-27T09:28:49.260 ,7,1,0.,12.0,0.,12.0,0.,12.0,0.,12.0
1989-08-27T09:29:01.260 ,7,1,0.,12.0,0.,12.0,0.,12.0,0.,12.0
1989-08-27T09:29:13.260 ,7,0,0.,12.0,0.,12.0,0.,12.0,0.,12.0
1989-08-27T09:29:25.260 ,7,0,0.,12.0,0.,12.0,0.,12.0,0.,12.0
1989-08-27T09:29:37.260 ,6,1,0.,12.0,0.,12.0,0.,12.0,0.,12.0
1989-08-27T09:29:49.260 ,6,1,0.,12.0,0.,12.0,0.,12.0,0.,12.0
1989-08-27T09:30:01.260 ,6,0,0.,12.0,0.,12.0,0.,12.0,0.,12.0
1989-08-27T09:30:13.260 ,6,0,0.,12.0,0.,12.0,0.,12.0,0.,12.0
1989-08-27T09:30:25.260 ,5,1,0.,12.0,0.,12.0,0.,12.0,0.,12.0
1989-08-27T09:30:37.260 ,5,1,0.,12.0,0.,12.0,0.,12.0,0.,12.0
1989-08-27T09:30:49.260 ,5,0,0.,12.0,0.,12.0,0.,12.0,0.,12.0
1989-08-27T09:31:01.260 ,5,0,0.,12.0,0.,12.0,0.,12.0,0.,12.0
1989-08-27T09:31:13.260 ,4,1,0.,12.0,0.,12.0,0.,12.0,0.,12.0
1989-08-27T09:31:25.260 ,4,1,0.,12.0,0.,12.0,0.,12.0,0.,12.0
1989-08-27T09:31:37.260 ,4,0,0.,12.0,0.,12.0,0.,12.0,0.,12.0
1989-08-27T09:31:49.260 ,4,0,0.,12.0,0.,12.0,0.,12.0,0.,12.0
1989-08-27T09:32:01.260 ,3,1,0.,12.0,0.,12.0,0.,12.0,0.,12.0
1989-08-27T09:32:13.260 ,3,1,0.,12.0,0.,12.0,0.,12.0,0.,12.0
1989-08-27T09:32:25.260 ,3,0,0.,12.0,0.,12.0,0.,12.0,0.,12.0
1989-08-27T09:32:37.260 ,3,0,0.,12.0,0.,12.0,0.,12.0,0.,12.0
1989-08-27T09:32:49.260 ,2,1,0.,12.0,0.,12.0,0.,12.0,0.,12.0
1989-08-27T09:33:01.260 ,2,1,0.,12.0,0.,12.0,0.,12.0,0.,12.0
1989-08-27T09:33:13.260 ,2,0,0.,12.0,0.,12.0,0.,12.0,0.,12.0
1989-08-27T09:33:25.260 ,2,0,0.,12.0,0.,12.0,0.,12.0,0.,12.0
1989-08-27T09:33:37.260 ,1,1,0.,12.0,0.,12.0,0.,12.0,0.,12.0
1989-08-27T09:33:49.260 ,1,1,0.,12.0,0.,12.0,0.,12.0,0.,12.0
1989-08-27T09:34:01.260 ,1,0,0.,12.0,0.,12.0,0.,12.0,0.,12.0
1989-08-27T09:34:13.260 ,1,0,0.,12.0,0.,12.0,0.,12.0,0.,12.0
1989-08-27T09:34:25.260 ,0,1,0.,12.0,0.,12.0,0.,12.0,0.,12.0
1989-08-27T09:34:37.260 ,0,1,0.,12.0,0.,12.0,0.,12.0,0.,12.0
1989-08-27T09:34:49.260 ,0,0,0.,12.0,0.,12.0,0.,12.0,0.,12.0
1989-08-27T09:35:01.260 ,0,0,0.,12.0,0.,12.0,0.,12.0,0.,12.0
1989-08-27T09:35:13.260 ,0,1,0.,12.0,0.,12.0,0.,12.0,0.,12.0
1989-08-27T09:35:25.260 ,0,1,0.,12.0,0.,12.0,0.,12.0,0.,12.0
1989-08-27T09:35:37.260 ,0,0,0.,12.0,0.,12.0,0.,12.0,0.,12.0
1989-08-27T09:35:49.260 ,0,0,0.,12.0,0.,12.0,0.,12.0,0.,12.0
1989-08-27T09:36:01.260 ,1,1,0.,12.0,0.,12.0,0.,12.0,0.,12.0
1989-08-27T09:36:13.260 ,1,1,0.,12.0,0.,12.0,0.,12.0,0.,12.0
1989-08-27T09:36:25.260 ,1,0,0.,12.0,0.,12.0,0.,12.0,0.,12.0
1989-08-27T09:36:37.260 ,1,0,0.,12.0,0.,12.0,0.,12.0,0.,12.0
1989-08-27T09:36:49.260 ,2,1,0.,12.0,0.,12.0,0.,12.0,0.,12.0
1989-08-27T09:37:01.260 ,2,1,0.,12.0,0.,12.0,0.,12.0,0.,12.0
1989-08-27T09:37:13.260 ,2,0,0.,12.0,0.,12.0,0.,12.0,0.,12.0
1989-08-27T09:37:25.260 ,2,0,0.,12.0,0.,12.0,0.,12.0,0.,12.0
1989-08-27T09:37:37.260 ,3,1,0.,12.0,0.,12.0,0.,12.0,0.,12.0
1989-08-27T09:37:49.260 ,3,1,0.,12.0,0.,12.0,0.,12.0,0.,12.0
1989-08-27T09:38:01.260 ,3,0,0.,12.0,0.,12.0,0.,12.0,0.,12.0
1989-08-27T09:38:13.260 ,3,0,0.,12.0,0.,12.0,0.,12.0,0.,12.0
1989-08-27T09:38:25.260 ,4,1,0.,12.0,0.,12.0,0.,12.0,0.,12.0
1989-08-27T09:38:37.260 ,4,1,0.,12.0,0.,12.0,0.,12.0,0.,12.0
1989-08-27T09:38:49.260 ,4,0,0.,12.0,0.,12.0,0.,12.0,0.,12.0
1989-08-27T09:39:01.260 ,4,0,0.,12.0,0.,12.0,0.,12.0,0.,12.0
1989-08-27T09:39:13.260 ,5,1,0.,12.0,0.,12.0,0.,12.0,0.,12.0
1989-08-27T09:39:25.260 ,5,1,0.,12.0,0.,12.0,0.,12.0,0.,12.0
1989-08-27T09:39:37.260 ,5,0,0.,12.0,0.,12.0,0.,12.0,0.,12.0
1989-08-27T09:39:49.260 ,5,0,0.,12.0,0.,12.0,0.,12.0,0.,12.0
1989-08-27T09:40:01.260 ,6,1,0.,12.0,0.,12.0,0.,12.0,0.,12.0
1989-08-27T09:40:13.260 ,6,1,0.,12.0,0.,12.0,0.,12.0,0.,12.0
1989-08-27T09:40:25.260 ,6,0,0.,12.0,0.,12.0,0.,12.0,0.,12.0
1989-08-27T09:40:37.260 ,6,0,0.,12.0,0.,12.0,0.,12.0,0.,12.0
1989-08-27T09:40:49.260 ,7,1,0.,12.0,0.,12.0,0.,12.0,0.,12.0
1989-08-27T09:41:01.260 ,7,1,0.,12.0,0.,12.0,0.,12.0,0.,12.0
1989-08-27T09:41:13.260 ,7,0,0.,12.0,0.,12.0,0.,12.0,0.,12.0
1989-08-27T09:41:25.260 ,7,0,0.,12.0,0.,12.0,0.,12.0,0.,12.0
1989-08-27T09:41:37.260 ,7,1,0.,12.0,0.,12.0,0.,12.0,0.,12.0
1989-08-27T09:41:49.260 ,7,1,0.,12.0,0.,12.0,0.,12.0,0.,12.0
1989-08-27T09:42:01.260 ,7,0,0.,12.0,0.,12.0,0.,12.0,0.,12.0
1989-08-27T09:42:13.260 ,7,0,0.,12.0,0.,12.0,0.,12.0,0.,12.0
1989-08-27T09:42:25.260 ,6,1,0.,12.0,1.,12.0,0.,12.0,0.,12.0
1989-08-27T09:42:37.260 ,6,1,0.,12.0,0.,12.0,0.,12.0,0.,12.0
1989-08-27T09:42:49.260 ,6,0,0.,12.0,0.,12.0,0.,12.0,0.,12.0
1989-08-27T09:43:01.260 ,6,0,0.,12.0,0.,12.0,0.,12.0,0.,12.0
1989-08-27T09:43:13.260 ,5,1,0.,12.0,0.,12.0,0.,12.0,0.,12.0
1989-08-27T09:43:25.260 ,5,1,0.,12.0,0.,12.0,0.,12.0,0.,12.0
1989-08-27T09:43:37.260 ,5,0,0.,12.0,0.,12.0,0.,12.0,0.,12.0
1989-08-27T09:43:49.260 ,5,0,0.,12.0,0.,12.0,0.,12.0,0.,12.0
1989-08-27T09:44:01.260 ,4,1,0.,12.0,0.,12.0,0.,12.0,0.,12.0
1989-08-27T09:44:13.260 ,4,1,0.,12.0,0.,12.0,0.,12.0,0.,12.0
1989-08-27T09:44:25.260 ,4,0,0.,12.0,0.,12.0,0.,12.0,0.,12.0
1989-08-27T09:44:37.260 ,4,0,0.,12.0,0.,12.0,0.,12.0,0.,12.0
1989-08-27T09:44:49.260 ,3,1,0.,12.0,0.,12.0,0.,12.0,0.,12.0
1989-08-27T09:45:01.260 ,3,1,0.,12.0,0.,12.0,0.,12.0,0.,12.0
1989-08-27T09:45:13.260 ,3,0,0.,12.0,0.,12.0,0.,12.0,0.,12.0
1989-08-27T09:45:25.260 ,3,0,0.,12.0,0.,12.0,0.,12.0,0.,12.0
1989-08-27T09:45:37.260 ,2,1,0.,12.0,0.,12.0,0.,12.0,0.,12.0
1989-08-27T09:45:49.260 ,2,1,0.,12.0,0.,12.0,0.,12.0,0.,12.0
1989-08-27T09:46:01.260 ,2,0,0.,12.0,0.,12.0,0.,12.0,0.,12.0
1989-08-27T09:46:13.260 ,2,0,0.,12.0,0.,12.0,0.,12.0,0.,12.0
1989-08-27T09:46:25.260 ,1,1,0.,12.0,0.,12.0,0.,12.0,0.,12.0
1989-08-27T09:46:37.260 ,1,1,0.,12.0,0.,12.0,0.,12.0,0.,12.0
1989-08-27T09:46:49.260 ,1,0,0.,12.0,0.,12.0,0.,12.0,0.,12.0
1989-08-27T09:47:01.260 ,1,0,0.,12.0,0.,12.0,0.,12.0,0.,12.0
1989-08-27T09:47:13.260 ,0,1,0.,12.0,0.,12.0,0.,12.0,0.,12.0
1989-08-27T09:47:25.260 ,0,1,0.,12.0,0.,12.0,0.,12.0,0.,12.0
1989-08-27T09:47:37.260 ,0,0,0.,12.0,0.,12.0,0.,12.0,0.,12.0
1989-08-27T09:47:49.260 ,0,0,0.,12.0,0.,12.0,0.,12.0,0.,12.0
1989-08-27T09:48:01.260 ,0,1,0.,12.0,0.,12.0,0.,12.0,0.,12.0
1989-08-27T09:48:13.260 ,0,1,0.,12.0,0.,12.0,0.,12.0,0.,12.0
1989-08-27T09:48:25.260 ,0,0,0.,12.0,0.,12.0,0.,12.0,0.,12.0
1989-08-27T09:48:37.260 ,0,0,0.,12.0,0.,12.0,0.,12.0,0.,12.0
1989-08-27T09:48:49.260 ,1,1,0.,12.0,0.,12.0,0.,12.0,0.,12.0
1989-08-27T09:49:01.260 ,1,1,0.,12.0,0.,12.0,0.,12.0,0.,12.0
1989-08-27T09:49:13.260 ,1,0,0.,12.0,0.,12.0,0.,12.0,0.,12.0
1989-08-27T09:49:25.260 ,1,0,0.,12.0,0.,12.0,0.,12.0,0.,12.0
1989-08-27T09:49:37.260 ,2,1,0.,12.0,0.,12.0,0.,12.0,0.,12.0
1989-08-27T09:49:49.260 ,2,1,0.,12.0,0.,12.0,0.,12.0,0.,12.0
1989-08-27T09:50:01.260 ,2,0,0.,12.0,0.,12.0,0.,12.0,0.,12.0
1989-08-27T09:50:13.260 ,2,0,0.,12.0,0.,12.0,0.,12.0,0.,12.0
1989-08-27T09:50:25.260 ,3,1,0.,12.0,0.,12.0,0.,12.0,0.,12.0
1989-08-27T09:50:37.260 ,3,1,0.,12.0,0.,12.0,0.,12.0,0.,12.0
1989-08-27T09:50:49.260 ,3,0,0.,12.0,0.,12.0,0.,12.0,0.,12.0
1989-08-27T09:51:01.260 ,3,0,0.,12.0,0.,12.0,0.,12.0,0.,12.0
1989-08-27T09:51:13.260 ,4,1,0.,12.0,0.,12.0,0.,12.0,0.,12.0
1989-08-27T09:51:25.260 ,4,1,0.,12.0,0.,12.0,0.,12.0,0.,12.0
1989-08-27T09:51:37.260 ,4,0,0.,12.0,0.,12.0,0.,12.0,0.,12.0
1989-08-27T09:51:49.260 ,4,0,0.,12.0,0.,12.0,0.,12.0,0.,12.0
1989-08-27T09:52:01.260 ,5,1,0.,12.0,0.,12.0,0.,12.0,0.,12.0
1989-08-27T09:52:13.260 ,5,1,0.,12.0,0.,12.0,0.,12.0,0.,12.0
1989-08-27T09:52:25.260 ,5,0,0.,12.0,0.,12.0,0.,12.0,0.,12.0
1989-08-27T09:52:37.260 ,5,0,0.,12.0,0.,12.0,0.,12.0,0.,12.0
1989-08-27T09:52:49.260 ,6,1,0.,12.0,0.,12.0,0.,12.0,0.,12.0
1989-08-27T09:53:01.260 ,6,1,0.,12.0,0.,12.0,0.,12.0,0.,12.0
1989-08-27T09:53:13.260 ,6,0,0.,12.0,0.,12.0,0.,12.0,0.,12.0
1989-08-27T09:53:25.260 ,6,0,0.,12.0,0.,12.0,0.,12.0,0.,12.0
1989-08-27T09:53:37.260 ,7,1,0.,12.0,0.,12.0,0.,12.0,0.,12.0
1989-08-27T09:53:49.260 ,7,1,0.,12.0,0.,12.0,0.,12.0,0.,12.0
1989-08-27T09:54:01.260 ,7,0,0.,12.0,0.,12.0,0.,12.0,0.,12.0
1989-08-27T09:54:13.260 ,7,0,0.,12.0,0.,12.0,0.,12.0,0.,12.0
1989-08-27T09:54:25.260 ,7,1,0.,12.0,0.,12.0,0.,12.0,0.,12.0
1989-08-27T09:54:37.260 ,7,1,0.,12.0,0.,12.0,0.,12.0,0.,12.0
1989-08-27T09:54:49.260 ,7,0,0.,12.0,0.,12.0,0.,12.0,0.,12.0
1989-08-27T09:55:01.260 ,7,0,0.,12.0,0.,12.0,0.,12.0,0.,12.0
1989-08-27T09:55:13.260 ,6,1,0.,12.0,0.,12.0,0.,12.0,0.,12.0
1989-08-27T09:55:25.260 ,6,1,0.,12.0,0.,12.0,0.,12.0,0.,12.0
1989-08-27T09:55:37.260 ,6,0,0.,12.0,0.,12.0,0.,12.0,0.,12.0
1989-08-27T09:55:49.260 ,6,0,0.,12.0,0.,12.0,0.,12.0,0.,12.0
1989-08-27T09:56:01.260 ,5,1,0.,12.0,0.,12.0,0.,12.0,0.,12.0
1989-08-27T09:56:13.260 ,5,1,0.,12.0,0.,12.0,0.,12.0,0.,12.0
1989-08-27T09:56:25.260 ,5,0,0.,12.0,0.,12.0,0.,12.0,0.,12.0
1989-08-27T09:56:37.260 ,5,0,0.,12.0,0.,12.0,0.,12.0,0.,12.0
1989-08-27T09:56:49.260 ,4,1,0.,12.0,0.,12.0,0.,12.0,0.,12.0
1989-08-27T09:57:01.260 ,4,1,0.,12.0,0.,12.0,0.,12.0,0.,12.0
1989-08-27T09:57:13.260 ,4,0,0.,12.0,0.,12.0,0.,12.0,0.,12.0
1989-08-27T09:57:25.260 ,4,0,0.,12.0,0.,12.0,0.,12.0,0.,12.0
1989-08-27T09:57:37.260 ,3,1,0.,12.0,0.,12.0,0.,12.0,0.,12.0
1989-08-27T09:57:49.260 ,3,1,0.,12.0,0.,12.0,0.,12.0,0.,12.0
1989-08-27T09:58:01.260 ,0,0,0.,12.0,0.,12.0,0.,12.0,0.,12.0
1989-08-27T09:58:13.260 ,0,0,0.,12.0,0.,12.0,0.,12.0,0.,12.0
1989-08-27T10:00:50.460 ,0,0,0.,12.0,0.,12.0,0.,12.0,0.,12.0
1989-08-27T10:01:02.460 ,0,0,0.,12.0,0.,12.0,0.,12.0,0.,12.0
1989-08-27T10:01:13.260 ,0,0,0.,12.0,0.,12.0,0.,12.0,0.,12.0
1989-08-27T10:01:25.260 ,0,0,0.,12.0,0.,12.0,0.,12.0,0.,12.0
1989-08-27T10:01:37.260 ,1,1,0.,12.0,0.,12.0,0.,12.0,0.,12.0
1989-08-27T10:01:49.260 ,1,1,0.,12.0,0.,12.0,0.,12.0,0.,12.0
1989-08-27T10:02:01.260 ,1,0,0.,12.0,0.,12.0,0.,12.0,0.,12.0
1989-08-27T10:02:13.260 ,1,0,0.,12.0,0.,12.0,0.,12.0,0.,12.0
1989-08-27T10:02:25.260 ,2,1,0.,12.0,0.,12.0,0.,12.0,0.,12.0
1989-08-27T10:02:37.260 ,2,1,0.,12.0,0.,12.0,0.,12.0,0.,12.0
1989-08-27T10:02:49.260 ,2,0,0.,12.0,0.,12.0,0.,12.0,0.,12.0
1989-08-27T10:03:01.260 ,2,0,0.,12.0,0.,12.0,0.,12.0,0.,12.0
1989-08-27T10:03:13.260 ,3,1,0.,12.0,0.,12.0,0.,12.0,0.,12.0
1989-08-27T10:03:25.260 ,3,1,0.,12.0,0.,12.0,0.,12.0,0.,12.0
1989-08-27T10:03:37.260 ,3,0,0.,12.0,0.,12.0,0.,12.0,0.,12.0
1989-08-27T10:03:49.260 ,3,0,0.,12.0,0.,12.0,0.,12.0,0.,12.0
1989-08-27T10:04:01.260 ,4,1,0.,12.0,0.,12.0,0.,12.0,0.,12.0
1989-08-27T10:04:13.260 ,4,1,0.,12.0,0.,12.0,0.,12.0,0.,12.0
1989-08-27T10:04:25.260 ,4,0,0.,12.0,0.,12.0,0.,12.0,0.,12.0
1989-08-27T10:04:37.260 ,4,0,0.,12.0,0.,12.0,0.,12.0,0.,12.0
1989-08-27T10:04:49.260 ,5,1,0.,12.0,0.,12.0,0.,12.0,0.,12.0
1989-08-27T10:05:01.260 ,5,1,0.,12.0,0.,12.0,0.,12.0,0.,12.0
1989-08-27T10:05:13.260 ,5,0,0.,12.0,0.,12.0,0.,12.0,0.,12.0
1989-08-27T10:05:25.260 ,5,0,0.,12.0,0.,12.0,0.,12.0,0.,12.0
1989-08-27T10:05:37.260 ,6,1,0.,12.0,0.,12.0,0.,12.0,0.,12.0
1989-08-27T10:05:49.260 ,6,1,0.,12.0,0.,12.0,0.,12.0,0.,12.0
1989-08-27T10:06:01.260 ,6,0,0.,12.0,0.,12.0,0.,12.0,0.,12.0
1989-08-27T10:06:13.260 ,6,0,0.,12.0,0.,12.0,0.,12.0,0.,12.0
1989-08-27T10:06:25.260 ,7,1,0.,12.0,0.,12.0,0.,12.0,0.,12.0
1989-08-27T10:06:37.260 ,7,1,0.,12.0,0.,12.0,0.,12.0,0.,12.0
1989-08-27T10:06:49.260 ,7,0,0.,12.0,0.,12.0,0.,12.0,0.,12.0
1989-08-27T10:07:01.260 ,7,0,0.,12.0,1.,12.0,0.,12.0,0.,12.0
1989-08-27T10:07:13.260 ,7,1,0.,12.0,0.,12.0,0.,12.0,0.,12.0
1989-08-27T10:07:25.260 ,7,1,0.,12.0,0.,12.0,0.,12.0,0.,12.0
1989-08-27T10:07:37.260 ,7,0,0.,12.0,0.,12.0,0.,12.0,0.,12.0
1989-08-27T10:07:49.260 ,7,0,0.,12.0,0.,12.0,0.,12.0,0.,12.0
1989-08-27T10:08:01.260 ,6,1,0.,12.0,0.,12.0,0.,12.0,0.,12.0
1989-08-27T10:08:13.260 ,6,1,0.,12.0,0.,12.0,0.,12.0,0.,12.0
1989-08-27T10:08:25.260 ,6,0,0.,12.0,0.,12.0,0.,12.0,0.,12.0
1989-08-27T10:08:37.260 ,6,0,0.,12.0,0.,12.0,0.,12.0,0.,12.0
1989-08-27T10:08:49.260 ,5,1,0.,12.0,0.,12.0,0.,12.0,0.,12.0
1989-08-27T10:09:01.260 ,5,1,0.,12.0,0.,12.0,0.,12.0,0.,12.0
1989-08-27T10:09:13.260 ,5,0,0.,12.0,0.,12.0,0.,12.0,0.,12.0
1989-08-27T10:09:25.260 ,5,0,0.,12.0,0.,12.0,0.,12.0,0.,12.0
1989-08-27T10:09:37.260 ,4,1,0.,12.0,0.,12.0,0.,12.0,0.,12.0
1989-08-27T10:09:49.260 ,4,1,0.,12.0,0.,12.0,0.,12.0,0.,12.0
1989-08-27T10:10:01.260 ,4,0,0.,12.0,0.,12.0,0.,12.0,0.,12.0
1989-08-27T10:10:13.260 ,4,0,0.,12.0,0.,12.0,0.,12.0,0.,12.0
1989-08-27T10:10:25.260 ,3,1,0.,12.0,0.,12.0,0.,12.0,0.,12.0
1989-08-27T10:10:37.260 ,3,1,0.,12.0,0.,12.0,0.,12.0,0.,12.0
1989-08-27T10:10:49.260 ,3,0,0.,12.0,0.,12.0,0.,12.0,0.,12.0
1989-08-27T10:11:01.260 ,3,0,0.,12.0,0.,12.0,0.,12.0,0.,12.0
1989-08-27T10:11:13.260 ,2,1,0.,12.0,0.,12.0,0.,12.0,0.,12.0
1989-08-27T10:11:25.260 ,2,1,0.,12.0,0.,12.0,0.,12.0,0.,12.0
1989-08-27T10:11:37.260 ,2,0,0.,12.0,0.,12.0,0.,12.0,0.,12.0
1989-08-27T10:11:49.260 ,2,0,0.,12.0,0.,12.0,0.,12.0,0.,12.0
1989-08-27T10:12:01.260 ,1,1,0.,12.0,0.,12.0,0.,12.0,0.,12.0
1989-08-27T10:12:13.260 ,1,1,0.,12.0,0.,12.0,0.,12.0,0.,12.0
1989-08-27T10:12:25.260 ,1,0,0.,12.0,0.,12.0,0.,12.0,0.,12.0
1989-08-27T10:12:37.260 ,1,0,0.,12.0,0.,12.0,0.,12.0,0.,12.0
1989-08-27T10:12:49.260 ,0,1,0.,12.0,0.,12.0,0.,12.0,0.,12.0
1989-08-27T10:13:01.260 ,0,1,0.,12.0,0.,12.0,0.,12.0,0.,12.0
1989-08-27T10:13:13.260 ,0,0,0.,12.0,0.,12.0,0.,12.0,0.,12.0
1989-08-27T10:13:25.260 ,0,0,0.,12.0,0.,12.0,0.,12.0,0.,12.0
1989-08-27T10:13:37.260 ,0,1,0.,12.0,0.,12.0,0.,12.0,0.,12.0
1989-08-27T10:13:49.260 ,0,1,0.,12.0,0.,12.0,0.,12.0,0.,12.0
1989-08-27T10:14:01.260 ,0,0,0.,12.0,0.,12.0,0.,12.0,0.,12.0
1989-08-27T10:14:13.260 ,0,0,0.,12.0,0.,12.0,0.,12.0,0.,12.0
1989-08-27T10:14:25.260 ,1,1,0.,12.0,0.,12.0,0.,12.0,0.,12.0
1989-08-27T10:14:37.260 ,1,1,0.,12.0,0.,12.0,0.,12.0,0.,12.0
1989-08-27T10:14:49.260 ,1,0,0.,12.0,0.,12.0,0.,12.0,0.,12.0
1989-08-27T10:15:01.260 ,1,0,0.,12.0,0.,12.0,0.,12.0,0.,12.0
1989-08-27T10:15:13.260 ,2,1,0.,12.0,0.,12.0,0.,12.0,0.,12.0
1989-08-27T10:15:25.260 ,2,1,0.,12.0,0.,12.0,0.,12.0,0.,12.0
1989-08-27T10:15:37.260 ,2,0,0.,12.0,0.,12.0,0.,12.0,0.,12.0
1989-08-27T10:15:49.260 ,2,0,0.,12.0,0.,12.0,0.,12.0,0.,12.0
1989-08-27T10:16:01.260 ,3,1,0.,12.0,0.,12.0,0.,12.0,0.,12.0
1989-08-27T10:16:13.260 ,3,1,0.,12.0,0.,12.0,0.,12.0,0.,12.0
1989-08-27T10:16:25.260 ,3,0,0.,12.0,0.,12.0,0.,12.0,0.,12.0
1989-08-27T10:16:37.260 ,3,0,0.,12.0,0.,12.0,0.,12.0,0.,12.0
1989-08-27T10:16:49.260 ,4,1,0.,12.0,0.,12.0,0.,12.0,0.,12.0
1989-08-27T10:17:01.260 ,4,1,0.,12.0,0.,12.0,0.,12.0,0.,12.0
1989-08-27T10:17:13.260 ,4,0,0.,12.0,0.,12.0,0.,12.0,0.,12.0
1989-08-27T10:17:25.260 ,4,0,0.,12.0,0.,12.0,0.,12.0,0.,12.0
1989-08-27T10:17:37.260 ,5,1,0.,12.0,0.,12.0,0.,12.0,0.,12.0
1989-08-27T10:17:49.260 ,5,1,0.,12.0,0.,12.0,0.,12.0,0.,12.0
1989-08-27T10:18:01.260 ,5,0,0.,12.0,0.,12.0,0.,12.0,0.,12.0
1989-08-27T10:18:13.260 ,5,0,0.,12.0,0.,12.0,0.,12.0,0.,12.0
1989-08-27T10:18:25.260 ,6,1,0.,12.0,0.,12.0,0.,12.0,0.,12.0
1989-08-27T10:18:37.260 ,6,1,0.,12.0,0.,12.0,0.,12.0,0.,12.0
1989-08-27T10:18:49.260 ,6,0,0.,12.0,0.,12.0,0.,12.0,0.,12.0
1989-08-27T10:19:01.260 ,6,0,0.,12.0,0.,12.0,0.,12.0,0.,12.0
1989-08-27T10:19:13.260 ,7,1,0.,12.0,0.,12.0,0.,12.0,0.,12.0
1989-08-27T10:19:25.260 ,7,1,0.,12.0,0.,12.0,0.,12.0,0.,12.0
1989-08-27T10:19:37.260 ,7,0,0.,12.0,0.,12.0,0.,12.0,0.,12.0
1989-08-27T10:19:49.260 ,7,0,0.,12.0,0.,12.0,0.,12.0,0.,12.0